Temp
21 22 22 24 25 25 26 24 24 26 26 23 25 26 27 25 24 25 25 23 22 21 20 17 15 14 14 12 11 11 10 9 9 10 10 10 10 7 6 5 4 3 3 3
22 21 24 25 25 24 23 23 24 25 25 24 24 25 27 27 25 25 25 24 23 21 19 16 15 13 12 12 11 11 10 9 10 10 10 10 9 7 6 5 4 3 3 2
22 24 24 23 23 22 22 23 23 24 24 25 24 24 25 27 27 25 25 25 23 21 19 17 15 13 12 12 11 10 10 9 9 9 8 8 7 6 6 6 5 3 2 2
22 24 23 23 22 23 22 24 23 22 23 23 25 24 27 28 26 24 24 23 22 21 20 17 15 14 13 12 11 11 10 9 8 8 9 9 12 11 7 6 4 3 1 1
21 22 21 22 22 22 22 23 23 22 22 23 23 23 25 26 26 25 23 22 21 21 19 18 16 14 13 12 10 10 9 9 7 7 8 8 9 7 6 5 3 3 2 1
20 23 21 22 22 22 22 21 21 21 21 20 23 23 25 27 26 25 24 23 20 19 19 18 16 14 13 12 10 9 9 8 6 6 6 7 7 6 6 5 5 4 3 2
19 19 21 21 19 20 19 18 16 16 16 20 25 24 25 26 27 26 24 22 21 19 18 17 16 14 13 11 10 9 8 7 6 5 6 5 5 5 5 5 5 4 3 2
20 20 21 22 20 19 19 17 18 19 21 23 25 22 25 24 25 25 25 24 21 19 17 17 16 14 12 10 9 8 7 6 5 5 5 4 4 5 4 3 4 3 2 1
20 21 22 22 22 21 18 17 19 17 17 19 24 25 25 23 22 21 21 20 21 19 17 16 15 13 11 10 8 7 7 6 5 5 4 3 3 3 3 2 2 1 0 -0
20 17 20 21 21 21 19 19 15 13 17 17 23 24 25 22 22 22 20 20 20 19 17 15 14 12 10 9 7 7 7 6 5 4 3 3 3 2 1 1 0 -1 -2 -2
19 17 16 18 18 20 19 17 14 14 16 18 21 23 20 19 20 21 21 19 18 17 16 15 14 13 10 9 8 7 7 5 4 3 2 2 1 -0 -0 -1 -1 -2 -2 -2
20 17 16 17 19 16 16 15 14 14 15 15 19 20 19 19 19 20 21 19 18 17 16 15 10 10 9 8 7 5 5 3 3 2 1 1 -1 -1 -1 -2 -2 -2 -2 -3
19 17 16 16 16 15 15 16 13 12 10 13 16 18 16 18 19 18 18 18 16 15 15 13 10 7 3 4 2 2 2 1 1 1 1 -1 -2 -2 -3 -3 -3 -3 -3 -3
14 16 16 17 16 12 12 12 12 11 12 13 14 14 16 17 18 20 19 17 16 14 13 12 10 8 5 4 0 -0 -0 0 0 -1 -1 -2 -3 -3 -4 -4 -3 -2 -2 -2
7 13 13 13 15 14 13 13 13 11 12 12 14 16 17 15 17 19 19 17 15 14 12 11 10 9 6 4 1 0 -0 -0 -0 -1 -3 -3 -4 -3 -4 -4 -3 -2 -2 -3
7 9 11 11 15 16 13 14 15 13 12 12 13 15 17 17 18 19 20 17 15 13 12 11 10 9 7 5 4 3 1 -2 -1 -2 -3 -4 -4 -4 -5 -3 -3 -3 -4 -5
9 9 10 12 15 15 13 14 14 16 16 16 15 18 19 17 18 18 19 19 17 15 13 11 10 8 7 6 5 3 1 -1 -2 -3 -4 -5 -5 -5 -5 -4 -4 -6 -6 -6
9 9 10 11 13 11 15 17 17 16 17 18 18 19 19 18 18 18 18 18 17 16 14 12 12 9 8 6 4 3 1 -0 -1 -2 -4 -5 -5 -6 -6 -6 -7 -6 -6 -6
11 11 10 10 12 14 15 16 16 15 17 19 18 18 19 18 17 17 17 17 17 16 15 13 12 9 7 5 4 3 1 1 0 -1 -2 -4 -5 -6 -7 -7 -7 -6 -6 -6
12 11 10 11 10 10 16 17 16 16 14 19 19 18 18 18 16 18 18 15 14 11 11 10 9 8 6 5 4 2 2 1 1 1 -1 -3 -4 -5 -7 -7 -6 -6 -6 -6
10 8 9 10 10 13 16 17 17 13 15 18 17 17 16 16 17 17 15 14 13 4 3 5 6 5 2 3 3 0 1 1 -0 -0 -1 -2 -3 -4 -5 -6 -5 -5 -5 -5
11 9 10 10 10 10 17 17 14 17 18 17 18 17 11 12 6 6 8 8 9 5 1 0 0 -1 -1 0 -0 -1 -1 -2 -2 -2 -3 -4 -4 -4 -4 -5 -5 -5 -4 -5
12 13 13 13 14 15 14 15 16 15 15 16 17 17 15 8 6 7 10 10 8 4 2 0 -1 -2 -3 -2 -2 -2 -3 -4 -4 -4 -5 -5 -5 -5 -6 -5 -5 -5 -5 -4
12 13 12 13 14 15 16 16 16 16 16 16 17 17 15 13 9 9 10 9 8 7 5 1 -1 -2 -3 -3 -3 -2 -4 -4 -4 -5 -5 -5 -5 -5 -6 -5 -5 -4 -5 -4
10 12 12 12 13 14 14 14 14 14 15 15 15 15 15 14 12 10 11 10 9 7 4 3 3 1 -1 -2 -3 -3 -4 -4 -4 -4 -5 -4 -4 -5 -5 -5 -5 -5 -5 -4
11 12 11 13 14 14 14 13 13 13 14 15 15 13 13 14 13 12 12 11 9 7 5 5 5 3 1 -0 -1 -3 -3 -3 -2 -3 -3 -3 -3 -3 -4 -4 -5 -5 -5 -6
Height
767 767 763 752 746 743 742 752 753 742 737 753 744 736 728 734 743 740 739 746 753 759 768 779 786 791 796 802 806 809 813 814 817 822 825 828 831 833 833 832 831 831 829 828
761 759 743 742 739 746 749 751 747 739 737 744 740 733 724 719 730 728 730 736 742 753 763 774 782 788 793 798 803 808 811 813 817 820 823 826 829 831 832 832 831 830 829 827
751 735 735 742 744 752 749 749 744 743 736 733 736 727 720 711 710 719 720 723 733 741 753 767 776 783 789 794 800 805 808 812 815 819 821 824 827 829 830 831 831 829 828 827
738 732 734 737 737 740 744 737 742 745 744 739 720 715 697 688 700 712 713 719 725 734 745 760 769 777 784 790 797 802 806 810 813 816 820 822 822 822 826 827 828 829 828 828
721 732 736 732 729 734 733 735 737 740 737 733 723 729 699 689 691 701 706 707 715 723 733 746 757 768 779 787 794 800 803 808 811 814 818 820 820 822 824 826 828 829 828 828
729 721 729 726 725 728 729 742 740 739 739 738 716 720 672 672 676 684 692 698 709 717 726 739 753 764 773 783 790 795 800 805 808 812 815 817 819 821 824 827 828 828 827 826
735 727 719 725 734 733 737 753 761 763 761 720 693 700 677 667 665 670 680 690 698 711 722 733 743 754 765 774 784 791 796 801 805 810 814 816 818 821 824 826 826 825 825 824
719 719 710 705 715 727 730 743 736 734 715 691 682 690 676 670 667 670 670 677 689 703 713 723 735 747 758 768 778 786 792 797 803 807 812 815 818 821 824 825 825 823 823 822
712 706 695 700 694 710 724 731 720 736 731 721 676 666 662 675 677 678 680 684 684 696 707 718 732 741 752 762 772 781 788 796 800 804 810 815 818 821 824 823 822 823 821 821
709 724 705 699 695 696 711 715 735 742 726 719 672 665 663 678 678 676 681 686 687 695 708 719 730 739 747 758 768 778 784 793 797 803 808 814 817 820 822 822 820 821 820 821
708 720 723 713 705 698 703 715 727 731 721 707 687 671 676 682 681 681 677 685 690 697 705 715 727 737 747 756 764 773 782 790 796 801 807 812 815 817 818 819 819 820 820 822
699 714 715 713 701 708 713 714 719 720 717 713 691 685 682 684 685 681 678 685 690 696 704 715 728 737 744 749 759 769 778 785 793 799 804 810 812 814 816 817 818 819 821 822
703 709 712 708 712 714 711 707 720 721 733 715 706 687 692 686 683 684 685 688 695 699 706 716 729 739 747 753 760 768 775 781 789 795 802 807 809 811 813 814 816 818 820 822
721 708 708 699 704 721 721 721 721 729 722 708 704 703 695 692 688 681 684 689 695 702 707 715 728 738 748 755 761 766 773 779 786 793 800 804 807 808 809 813 816 817 820 823
755 719 715 714 707 712 716 714 715 725 718 715 706 693 689 698 690 681 684 691 694 700 707 715 722 731 741 751 760 766 772 778 783 791 797 801 805 805 809 812 815 818 821 824
753 740 726 722 706 700 707 704 699 708 714 713 709 696 684 685 680 678 677 684 690 697 704 711 719 728 735 744 752 762 769 775 782 789 795 798 802 806 808 811 814 819 822 822
746 743 732 707 698 692 700 689 692 684 686 686 691 676 675 682 679 678 674 675 682 690 697 705 711 720 729 738 746 755 764 772 780 787 791 796 800 804 807 810 814 818 820 821
733 740 735 715 707 708 686 678 675 679 674 672 672 668 668 674 673 671 671 673 678 683 692 697 705 715 725 734 745 754 761 768 776 783 788 793 797 802 805 809 814 818 818 821
718 720 727 720 705 693 682 677 678 680 674 663 665 665 665 667 673 669 671 672 673 677 684 688 696 710 720 729 738 748 757 765 772 778 784 790 794 798 803 808 813 817 818 821
704 714 717 713 716 709 674 671 676 675 678 661 659 659 661 664 670 657 660 667 672 677 682 690 698 708 717 725 733 742 750 759 766 772 779 786 791 796 802 807 811 814 817 821
704 716 714 704 706 684 668 671 674 685 672 656 659 658 661 662 658 661 665 670 675 684 686 691 697 704 712 721 730 739 746 754 761 769 777 784 789 795 801 806 810 813 817 820
691 703 702 701 702 692 655 658 672 658 655 659 657 656 667 664 674 677 675 677 679 685 692 695 700 708 715 721 728 737 745 752 759 768 774 781 788 794 799 804 808 812 815 819
680 674 672 674 665 660 662 660 661 663 662 658 658 655 660 671 676 675 673 675 681 689 693 698 702 710 719 725 731 736 743 750 759 766 774 781 788 793 797 802 807 811 814 816
674 672 674 670 659 656 654 655 657 658 658 657 655 655 658 660 670 673 672 677 681 687 693 699 706 713 720 726 732 737 742 749 757 766 774 781 787 792 796 801 806 808 811 814
684 669 669 663 661 660 658 657 657 656 656 656 655 655 656 658 663 669 670 676 683 687 694 700 706 713 720 726 732 736 741 748 759 766 773 779 785 789 795 799 803 806 809 811
671 662 664 656 653 654 654 658 659 656 653 651 653 655 656 656 659 664 669 674 682 688 694 699 704 711 718 724 730 736 742 748 756 763 770 775 780 786 791 796 801 803 806 808
Wind_Speed
14 13 17 21 22 20 17 13 17 15 5 8 15 19 19 16 17 20 19 20 22 23 22 24 24 22 22 21 20 19 17 16 14 11 9 7 5 4 4 3 5 5 6 8
11 22 20 20 16 18 19 20 21 19 16 17 21 24 19 18 21 23 23 23 25 22 22 25 27 25 25 23 21 19 17 16 13 10 8 6 7 4 4 3 3 5 6 7
23 16 19 19 19 18 20 20 19 20 16 19 20 27 25 23 20 23 24 24 24 25 26 23 27 28 27 25 23 20 18 16 13 11 10 8 7 6 4 2 2 4 5 6
20 23 26 19 24 20 24 16 18 20 17 15 7 21 19 20 27 26 25 23 23 26 25 23 26 29 29 26 23 21 18 16 14 13 10 10 6 6 4 3 2 1 4 4
24 15 19 27 26 20 23 16 17 17 18 19 24 14 19 25 22 23 25 25 24 26 28 28 28 33 30 27 25 22 19 16 14 12 9 8 7 7 5 3 2 2 1 3
25 18 10 16 16 19 19 13 15 13 12 17 20 17 22 19 22 23 22 25 24 25 26 26 32 31 31 28 26 23 21 17 14 11 10 8 8 6 5 4 4 2 1 2
23 29 28 18 15 10 13 12 3 7 7 15 10 15 23 10 9 19 20 22 24 24 25 25 27 31 33 32 29 25 23 19 16 14 11 9 7 6 5 5 4 3 2 4
13 10 21 19 35 19 21 17 8 11 15 17 23 15 13 2 4 6 9 17 19 23 22 27 27 32 34 33 31 27 25 22 18 15 12 9 8 6 6 5 4 4 4 6
9 17 4 9 17 24 14 19 23 10 7 6 13 18 12 7 7 9 8 7 17 21 23 25 25 32 35 35 33 29 26 21 19 16 13 10 8 7 6 5 5 4 6 6
9 9 8 6 11 20 21 11 8 5 6 8 17 20 12 6 9 9 8 6 10 16 20 22 23 32 34 35 32 28 26 23 20 17 14 11 10 8 7 6 7 6 6 6
11 8 3 6 11 16 18 15 5 1 6 5 12 8 4 3 4 6 5 5 9 14 18 20 21 30 31 31 31 29 26 23 20 17 14 13 11 10 8 7 7 6 6 6
11 6 9 12 8 3 4 7 13 4 5 7 12 6 3 3 5 5 0 4 9 12 15 17 12 24 28 30 31 30 27 24 21 18 16 14 13 10 9 8 8 7 6 5
11 8 11 8 7 3 7 9 4 3 2 5 5 4 3 4 6 4 1 6 9 12 15 16 17 14 18 25 26 27 26 26 24 20 17 16 13 12 10 9 8 7 6 5
10 14 14 14 3 2 2 3 4 6 2 2 5 2 4 6 5 3 2 5 9 12 14 16 18 18 23 25 24 26 25 29 26 22 18 16 14 13 11 10 9 8 6 5
8 8 8 11 10 8 7 9 11 10 3 3 5 10 13 7 10 13 2 8 11 14 16 16 17 18 25 25 25 25 24 30 27 25 20 18 15 13 12 11 10 8 7 6
2 5 9 6 14 17 17 16 16 15 12 10 13 19 19 7 15 17 13 9 12 14 16 17 18 19 23 27 28 27 25 25 25 25 21 18 16 16 13 12 11 10 9 8
5 4 7 6 10 10 9 18 21 16 14 16 15 20 9 8 16 15 16 11 12 15 18 20 21 20 26 29 30 30 27 25 23 22 20 19 17 16 14 13 13 12 11 10
9 8 5 9 12 10 9 7 13 16 16 18 19 18 12 11 16 13 11 12 13 14 18 18 17 23 27 28 28 27 27 27 24 22 20 19 20 18 16 15 15 13 12 11
18 13 7 5 10 16 22 11 6 6 13 16 17 16 15 13 10 15 12 12 13 15 16 16 26 26 28 30 30 30 28 27 25 24 23 21 23 21 18 17 16 14 13 11
20 15 10 10 13 8 12 5 5 4 13 14 14 15 13 8 7 10 12 8 8 5 12 17 22 26 28 30 31 31 30 29 27 26 24 22 22 20 19 18 16 14 12 11
13 7 15 15 12 13 23 20 9 11 8 3 5 9 5 9 12 4 6 7 7 7 11 19 23 22 26 31 31 28 28 27 26 25 23 23 22 21 20 18 16 15 13 12
11 8 8 12 12 19 9 13 18 12 11 9 8 9 6 7 2 1 3 6 10 12 14 18 20 20 24 29 29 26 25 25 30 28 26 25 24 22 21 19 16 15 14 12
13 14 8 9 10 4 2 5 7 10 12 13 11 9 7 5 5 6 7 9 10 10 15 17 19 21 20 23 25 25 23 31 30 27 25 25 24 22 22 19 17 16 14 12
10 7 7 8 13 18 17 15 14 15 15 14 11 9 7 7 8 9 11 11 13 14 15 18 20 19 20 20 21 22 29 31 31 27 25 24 24 22 21 18 17 15 15 13
14 8 10 13 12 12 15 14 16 17 13 12 11 10 11 8 9 10 12 12 11 13 16 18 17 18 19 21 19 22 29 31 25 23 23 23 22 21 19 18 17 16 14 13
14 11 7 7 6 8 5 1 6 6 6 8 9 8 9 10 11 13 12 12 12 14 17 17 17 18 21 22 21 22 25 27 26 24 23 23 22 22 20 18 16 15 12 16
Wind_Direction
204 219 222 220 223 240 263 270 269 264 257 277 257 259 249 197 219 224 212 202 200 199 186 181 182 176 175 174 172 169 165 159 153 156 154 153 152 132 101 76 54 33 21 14
212 234 240 242 246 237 250 256 259 266 263 267 265 260 247 232 216 222 216 209 205 195 186 185 184 182 182 177 176 174 171 168 167 165 162 154 157 150 136 108 65 40 26 17
231 239 220 244 246 242 242 249 261 267 279 267 269 265 257 244 231 229 225 217 209 200 192 187 187 186 183 181 178 176 172 169 167 166 156 147 147 152 161 124 66 25 27 21
248 249 250 243 244 235 249 241 253 268 266 268 265 276 257 239 218 225 220 213 207 203 196 191 189 188 187 183 179 176 169 164 166 165 171 182 200 169 155 130 88 44 32 20
228 242 235 237 237 222 256 268 264 262 262 271 254 261 261 241 228 219 220 212 206 201 196 194 191 188 185 180 178 174 167 167 165 167 170 168 158 137 137 128 139 168 64 35
251 258 251 258 245 244 257 261 251 252 257 254 245 241 267 235 220 223 219 218 206 200 197 195 189 183 183 178 177 173 170 166 161 159 167 165 151 145 149 170 184 161 135 52
241 244 242 227 237 238 233 222 216 216 204 247 230 227 238 302 288 220 215 212 205 199 198 191 184 183 180 179 175 174 172 166 163 165 162 149 148 150 167 178 167 144 105 51
215 234 219 223 225 216 209 194 214 233 236 251 216 243 250 219 241 236 237 213 204 196 192 191 185 182 178 176 176 174 172 166 166 161 156 154 157 168 173 163 141 102 80 55
244 250 177 226 218 211 232 218 224 260 253 276 242 238 229 186 198 212 221 212 197 193 190 190 183 178 176 176 176 172 169 168 168 156 158 162 165 178 172 143 116 107 80 58
263 266 272 260 224 221 207 186 213 207 215 231 246 248 246 183 232 221 227 211 187 180 184 187 184 182 176 175 171 171 170 172 163 160 160 167 170 167 162 136 120 108 86 64
243 248 204 296 214 227 221 219 183 242 242 245 266 269 36 48 297 266 237 190 173 179 182 183 183 184 176 171 170 169 169 168 163 161 162 169 168 166 149 138 124 111 97 74
269 257 257 250 250 201 242 277 206 205 178 234 272 265 63 15 337 338 312 174 160 172 174 174 168 171 173 167 166 166 166 165 164 162 166 171 168 158 153 142 126 121 116 93
265 244 260 243 232 214 240 245 249 309 85 209 232 205 37 17 21 37 330 163 163 167 167 168 169 162 155 156 155 162 162 161 162 162 168 171 165 163 155 142 135 133 126 112
311 253 241 259 305 135 193 273 259 181 225 257 221 342 196 150 302 278 242 184 172 172 166 168 177 174 169 168 161 157 157 170 164 164 169 166 170 165 153 145 142 138 134 144
21 260 216 258 250 238 223 241 269 296 233 239 327 260 213 214 257 259 255 170 169 172 175 177 178 176 174 172 171 165 165 175 175 175 171 172 168 158 152 147 146 142 149 151
4 311 305 266 266 252 244 254 248 231 239 251 259 263 265 218 245 250 233 197 185 185 182 178 177 175 176 177 175 173 171 170 175 177 174 169 163 159 154 150 148 152 151 142
253 299 310 277 345 282 268 244 233 230 231 225 241 255 258 229 251 251 244 229 210 189 178 180 182 179 179 180 178 177 171 167 171 175 170 168 165 162 157 152 155 157 148 141
221 231 258 283 303 269 356 336 237 238 241 240 250 266 255 244 251 260 246 228 216 201 191 187 181 180 179 176 175 171 170 171 172 173 170 169 169 164 157 158 157 156 150 144
221 219 252 258 272 286 284 263 226 229 262 246 242 254 261 254 268 259 242 226 226 205 198 189 183 177 171 171 170 170 171 173 174 174 174 173 173 165 164 161 160 157 150 144
214 219 219 238 253 261 248 27 6 299 261 259 253 261 269 227 239 253 237 211 201 154 159 150 153 159 166 171 171 170 172 175 178 176 174 171 170 168 166 163 160 157 152 154
202 205 217 228 236 252 256 261 269 242 269 328 259 262 252 209 236 356 145 159 154 135 117 140 149 159 158 162 166 167 169 174 170 166 166 168 168 169 167 163 161 157 159 160
191 197 209 228 238 246 243 208 212 241 261 282 274 279 247 258 51 122 135 144 145 134 131 131 128 135 149 156 159 162 164 161 162 160 159 162 166 166 166 163 162 166 166 166
242 222 239 213 218 266 356 273 269 286 282 274 270 255 241 198 211 200 171 159 144 143 141 134 128 133 145 156 161 157 157 159 157 154 158 161 163 164 163 164 168 169 173 174
229 239 230 242 243 253 265 274 276 277 261 265 261 268 228 228 190 175 155 152 148 147 142 140 139 144 152 159 161 161 162 163 157 155 160 164 167 167 168 174 180 181 183 185
277 199 220 247 269 282 276 283 292 271 258 255 262 259 242 225 191 169 155 147 144 140 143 151 153 154 156 160 156 165 164 163 159 161 163 169 173 173 177 183 188 192 195 193
238 223 212 249 250 251 308 28 352 271 261 291 265 257 247 217 182 163 155 145 148 148 152 153 152 152 156 161 160 164 166 166 163 164 169 174 175 178 181 184 183 200 199 199